EW5612 Weather Reports


Display with metric or nautical units.
time (UTC)temp
F
wind
direction
speed
MPH
gust
MPH
rain 1hr
in
rain 24hr
in
rain mn
in
humidity
%
barometer
mb
20260502220203 75 25 1.0 3.0 0.00 0.07 0.00 47 1019.1
20260502215703 75 41 2.0 7.0 0.00 0.11 0.00 47 1019.2
20260502215204 75 233 1.0 3.0 0.00 0.14 0.00 49 1019.2
20260502214703 74 251 1.0 7.0 0.00 0.15 0.00 49 1019.3
20260502214204 74 39 2.0 3.0 0.00 0.15 0.00 49 1019.3
20260502213703 74 19 2.0 6.0 0.00 0.15 0.00 47 1019.4
20260502213203 74 297 2.0 8.0 0.00 0.15 0.00 48 1019.4
20260502212204 74 349 2.0 5.0 0.00 0.15 0.00 50 1019.6
20260502211703 74 283 2.0 7.0 0.00 0.15 0.00 49 1019.6
20260502211204 74 44 2.0 10.0 0.00 0.15 0.00 50 1019.8
20260502210704 74 8 2.0 6.0 0.00 0.15 0.00 50 1019.9
20260502210203 74 334 2.0 5.0 0.00 0.15 0.00 47 1019.9
20260502205703 74 349 2.0 6.0 0.00 0.15 0.00 52 1020.0
20260502205204 74 349 2.0 5.0 0.00 0.15 0.00 51 1020.1
20260502204704 74 260 2.0 5.0 0.00 0.15 0.00 51 1020.1
20260502204204 74 277 2.0 6.0 0.00 0.15 0.00 52 1020.2
20260502203703 74 34 3.0 5.0 0.00 0.15 0.00 52 1020.2
20260502203204 74 229 3.0 7.0 0.00 0.15 0.00 50 1020.3
20260502201203 73 68 2.0 3.0 0.00 0.16 0.00 52 1020.6
20260502200203 73 341 1.0 3.0 0.00 0.16 0.00 53 1020.6
20260502195703 73 46 1.0 8.0 0.00 0.17 0.00 54 1020.7
20260502195204 72 294 2.0 8.0 0.00 0.17 0.00 52 1020.6
20260502194704 72 21 2.0 6.0 0.00 0.18 0.00 56 1020.6
20260502194203 72 285 2.0 9.0 0.00 0.18 0.00 54 1020.6
20260502193203 72 333 2.0 3.0 0.00 0.18 0.00 55 1020.7
20260502192704 72 258 2.0 5.0 0.00 0.18 0.00 56 1020.7
20260502192204 72 253 2.0 7.0 0.00 0.18 0.00 56 1020.7
20260502191703 72 326 0.0 7.0 0.00 0.18 0.00 58 1020.8
20260502191204 71 39 2.0 3.0 0.00 0.18 0.00 57 1020.9
20260502190203 71 339 2.0 5.0 0.00 0.18 0.00 58 1021.0
20260502185704 71 346 2.0 5.0 0.00 0.18 0.00 56 1020.9
20260502185203 71 334 3.0 6.0 0.00 0.18 0.00 56 1021.0
20260502184204 71 291 2.0 8.0 0.00 0.22 0.00 57 1021.2
20260502183703 71 48 3.0 6.0 0.00 0.24 0.00 58 1021.3
20260502183203 70 291 2.0 6.0 0.00 0.25 0.00 60 1021.2
20260502182204 70 189 2.0 5.0 0.00 0.27 0.00 57 1021.4
20260502181704 70 258 2.0 6.0 0.00 0.28 0.00 58 1021.4
20260502180703 70 16 2.0 5.0 0.00 0.30 0.00 58 1021.7
20260502180203 70 328 2.0 5.0 0.00 0.31 0.00 57 1021.9
20260502170204 68 43 2.0 3.0 0.00 0.31 0.00 62 1022.5
20260502163704 66 349 3.0 8.0 0.00 0.31 0.00 65 1022.6
20260502163204 66 75 1.0 5.0 0.00 0.31 0.00 66 1022.5
20260502162704 66 310 2.0 7.0 0.00 0.31 0.00 65 1022.6
20260502162203 66 338 2.0 3.0 0.00 0.31 0.00 67 1022.6
20260502161204 65 321 2.0 5.0 0.00 0.34 0.00 68 1022.6
20260502160703 65 282 2.0 5.0 0.00 0.34 0.00 69 1022.6
20260502160203 64 327 2.0 7.0 0.00 0.35 0.00 69 1022.6
20260502152204 62 23 2.0 6.0 0.00 0.37 0.00 76 1022.5
20260502151703 62 16 2.0 5.0 0.00 0.37 0.00 75 1022.5
20260502151204 62 45 3.0 8.0 0.00 0.37 0.00 75 1022.5
20260502150704 61 320 2.0 3.0 0.00 0.37 0.00 78 1022.4
20260502150203 61 287 2.0 3.0 0.00 0.38 0.00 79 1022.4
20260502130703 52 316 0.0 3.0 0.00 0.48 0.00 95 1021.1
20260502130204 52 302 1.0 3.0 0.00 0.49 0.00 96 1021.0
20260502123703 51 319 1.0 3.0 0.00 0.56 0.00 95 1020.6
20260502123203 51 311 0.0 3.0 0.00 0.57 0.00 96 1020.5
20260502122704 50 286 0.0 2.0 0.00 0.58 0.00 95 1020.2
20260502122204 50 316 0.0 2.0 0.00 0.59 0.00 95 1020.2
20260502121203 50 303 0.0 2.0 0.00 0.60 0.00 95 1020.1
20260502120704 50 315 0.0 0.0 0.00 0.62 0.00 95 1020.1
20260502115704 50 315 0.0 2.0 0.00 0.64 0.00 95 1020.1
20260502115203 50 333 0.0 2.0 0.00 0.65 0.00 95 1020.0
20260502114703 50 333 0.0 2.0 0.00 0.67 0.00 95 1019.9
20260502114203 50 336 1.0 2.0 0.00 0.67 0.00 95 1019.8
20260502113703 50 338 0.0 2.0 0.00 0.67 0.00 95 1019.7
20260502113203 50 340 0.0 2.0 0.00 0.67 0.00 95 1019.8
20260502112704 50 340 1.0 2.0 0.00 0.67 0.00 95 1019.8
20260502112204 50 345 1.0 3.0 0.00 0.67 0.00 95 1019.6
20260502111703 50 314 0.0 2.0 0.00 0.67 0.00 95 1019.7
20260502111204 50 355 0.0 2.0 0.00 0.67 0.00 95 1019.7
20260502110203 50 341 0.0 1.0 0.00 0.67 0.00 95 1019.3
20260502105703 50 343 1.0 3.0 0.00 0.67 0.00 95 1019.4
20260502105204 51 343 0.0 3.0 0.00 0.67 0.00 95 1019.3
20260502104204 51 343 0.0 3.0 0.00 0.67 0.00 95 1019.3
20260502103704 51 320 1.0 2.0 0.00 0.67 0.00 95 1019.1
20260502102704 51 337 0.0 2.0 0.00 0.67 0.00 95 1018.9
20260502102204 51 336 1.0 5.0 0.00 0.67 0.00 95 1018.9
20260502101704 51 314 1.0 3.0 0.00 0.67 0.00 95 1018.8
20260502101204 51 285 0.0 3.0 0.00 0.68 0.00 95 1018.6
20260502100703 51 289 0.0 1.0 0.00 0.68 0.00 95 1018.4
20260502100203 51 286 0.0 3.0 0.00 0.69 0.00 95 1018.3
20260502091203 51 313 0.0 3.0 0.00 0.78 0.00 95 1017.9
20260502090204 51 301 1.0 3.0 0.00 0.78 0.00 95 1017.8
20260502071204 52 355 0.0 1.0 0.00 0.78 0.00 94 1017.3
20260502065204 52 7 0.0 1.0 0.00 0.78 0.00 93 1017.6
20260502064203 52 317 0.0 2.0 0.00 0.78 0.00 93 1017.6
20260502063704 52 293 0.0 3.0 0.00 0.78 0.00 93 1017.7
20260502062704 53 278 0.0 3.0 0.00 0.78 0.00 93 1017.6
20260502062204 53 262 0.0 2.0 0.00 0.78 0.00 93 1017.6
20260502061704 53 308 0.0 3.0 0.00 0.78 0.00 93 1017.7
20260502061203 53 22 1.0 3.0 0.00 0.78 0.00 92 1017.6
20260502060704 53 44 0.0 3.0 0.00 0.78 0.00 92 1017.6
20260502060203 53 279 1.0 3.0 0.00 0.78 0.00 92 1017.6
20260502055703 52 35 1.0 7.0 0.00 0.78 0.00 92 1017.7
20260502055204 52 48 1.0 3.0 0.00 0.78 0.00 92 1017.6
20260502054704 53 314 0.0 2.0 0.00 0.78 0.00 91 1017.6
20260502054203 53 24 0.0 2.0 0.00 0.78 0.00 91 1017.7
20260502053204 53 273 0.0 2.0 0.00 0.78 0.00 91 1017.7
20260502052703 53 39 1.0 3.0 0.00 0.78 0.00 91 1017.7
20260502052203 53 295 0.0 3.0 0.00 0.78 0.00 90 1017.8
20260502051704 53 37 0.0 3.0 0.00 0.78 0.00 90 1017.6
20260502051203 53 17 0.0 2.0 0.00 0.78 0.00 90 1017.6
20260502050703 53 19 1.0 3.0 0.00 0.78 0.00 90 1017.7
20260502050203 53 56 0.0 3.0 0.00 0.78 0.00 90 1017.6
20260502045703 53 20 0.0 2.0 0.00 0.78 1.31 90 1017.6
20260502045203 53 304 0.0 3.0 0.00 0.78 1.31 89 1017.7
20260502044703 53 50 0.0 5.0 0.00 0.78 1.31 89 1017.7
20260502044204 53 197 0.0 3.0 0.00 0.78 1.31 89 1017.6
20260502043704 53 272 1.0 3.0 0.00 0.78 1.31 89 1017.5
20260502043204 53 21 0.0 5.0 0.00 0.78 1.31 89 1017.5
20260502042704 53 3 2.0 7.0 0.00 0.78 1.31 90 1017.4
20260502042203 53 9 2.0 9.0 0.00 0.78 1.31 90 1017.4
20260502041703 53 288 2.0 10.0 0.00 0.78 1.31 91 1017.4
20260502041203 53 48 3.0 9.0 0.00 0.78 1.31 91 1017.4
20260502040704 53 350 3.0 12.0 0.00 0.78 1.31 92 1017.3
20260502040203 54 30 1.0 5.0 0.00 0.78 1.31 93 1017.2
20260502035704 54 16 3.0 9.0 0.00 0.78 1.31 93 1017.1
20260502035203 54 318 2.0 10.0 0.00 0.78 1.31 93 1017.1
20260502034704 54 351 2.0 5.0 0.00 0.78 1.31 94 1017.0
20260502034203 54 307 1.0 6.0 0.00 0.78 1.31 94 1017.0
20260502033204 54 356 1.0 6.0 0.00 0.78 1.31 94 1017.1
20260502032704 54 315 2.0 7.0 0.00 0.78 1.31 94 1017.0
20260502032204 54 0 1.0 8.0 0.00 0.78 1.31 95 1017.0
20260502031704 54 324 1.0 3.0 0.00 0.78 1.31 94 1016.9
20260502031203 54 350 2.0 10.0 0.00 0.78 1.31 95 1016.8
20260502030204 54 223 1.0 3.0 0.00 0.78 1.31 95 1016.6
20260502025703 54 326 2.0 9.0 0.00 0.78 1.31 95 1016.6
20260502025204 54 331 2.0 6.0 0.00 0.78 1.31 95 1016.5
20260502024703 54 328 2.0 6.0 0.00 0.78 1.31 95 1016.4
20260502024204 55 16 2.0 9.0 0.00 0.78 1.31 95 1016.3
20260502023704 55 290 3.0 6.0 0.00 0.78 1.31 95 1016.3
20260502023203 55 306 2.0 9.0 0.00 0.78 1.31 96 1016.3
20260502022704 55 307 3.0 10.0 0.00 0.78 1.31 96 1016.2
20260502022203 55 65 2.0 5.0 0.00 0.78 1.31 96 1016.0
20260502021704 55 64 1.0 3.0 0.00 0.78 1.31 96 1016.0
20260502021203 55 351 0.0 5.0 0.00 0.78 1.31 96 1015.9
20260502020203 55 39 1.0 5.0 0.00 0.78 1.31 96 1015.6
20260502015704 55 359 2.0 6.0 0.00 0.78 1.31 96 1015.5
20260502015203 55 321 2.0 5.0 0.00 0.87 1.31 96 1015.4
20260502014703 55 288 1.0 6.0 0.00 0.88 1.31 96 1015.4
20260502014203 55 0 3.0 9.0 0.00 0.88 1.31 96 1015.1
20260502013704 55 0 1.0 8.0 0.00 0.88 1.31 96 1015.0
20260502013204 55 313 1.0 7.0 0.00 0.88 1.31 96 1015.0
20260502012704 55 32 2.0 12.0 0.00 0.88 1.31 96 1014.9
20260502012203 55 293 1.0 7.0 0.00 0.88 1.31 96 1014.9
20260502011704 55 351 2.0 8.0 0.00 0.88 1.31 96 1014.8
20260502011203 55 26 3.0 9.0 0.00 0.88 1.31 96 1014.9
20260502010704 55 321 2.0 9.0 0.00 0.88 1.31 96 1014.8
20260502010204 55 353 2.0 10.0 0.00 0.88 1.31 96 1014.6
20260502005703 55 20 2.0 8.0 0.00 0.88 1.31 96 1014.6
20260502005204 55 322 2.0 10.0 0.00 0.88 1.31 96 1014.4
20260502004704 55 31 2.0 6.0 0.00 0.88 1.31 96 1014.1
20260502003704 55 46 2.0 6.0 0.00 0.88 1.31 96 1013.8
20260502003203 55 350 1.0 6.0 0.00 0.88 1.31 96 1013.9
20260502002204 55 44 3.0 12.0 0.00 0.88 1.31 96 1013.6
20260502001703 55 58 3.0 13.0 0.00 0.88 1.31 96 1013.7
20260502001204 55 26 3.0 12.0 0.00 0.88 1.31 96 1013.7
20260502000703 55 38 2.0 8.0 0.00 0.88 1.31 96 1013.7
20260502000204 55 335 3.0 9.0 0.00 0.88 1.31 96 1013.9
20260501235704 55 313 2.0 12.0 0.00 0.88 1.31 96 1014.2
20260501234704 55 288 2.0 9.0 0.00 0.88 1.31 96 1013.9
20260501233704 56 341 3.0 12.0 0.00 0.88 1.31 97 1013.7
20260501233204 56 317 2.0 12.0 0.01 0.88 1.31 96 1013.8
20260501232703 56 349 2.0 10.0 0.01 0.88 1.31 96 1013.7
20260501232203 56 12 3.0 9.0 0.01 0.88 1.31 97 1013.6
20260501231704 56 19 3.0 9.0 0.01 0.88 1.31 96 1013.4
20260501231203 57 336 3.0 8.0 0.02 0.88 1.31 97 1013.3
20260501230704 57 15 4.0 9.0 0.02 0.88 1.31 97 1013.2
20260501230203 57 27 2.0 8.0 0.04 0.88 1.31 97 1013.0
20260501225704 57 353 2.0 10.0 0.05 0.88 1.31 97 1013.1
20260501225203 57 348 4.0 14.0 0.08 0.88 1.31 97 1013.0
20260501224704 57 312 4.0 10.0 0.12 0.88 1.31 97 1012.9
20260501224203 57 262 2.0 13.0 0.14 0.88 1.31 97 1012.7
20260501223703 57 1 3.0 12.0 0.15 0.88 1.31 97 1012.6
20260501223204 57 33 2.0 5.0 0.14 0.87 1.30 97 1012.5
20260501222203 57 290 3.0 9.0 0.14 0.87 1.30 97 1013.0
20260501221704 57 280 2.0 8.0 0.14 0.87 1.30 97 1012.7
20260501221203 57 317 4.0 10.0 0.13 0.86 1.29 97 1012.6
20260501220703 57 285 2.0 6.0 0.13 0.86 1.29 97 1012.6